{"data":{"norad_id":39172,"intl_designator":"2013-026A","name":"SES-6","alt_names":[],"object_type":"PAYLOAD","status":"ACTIVE","operator":null,"country":"SES","launch_date":"2013-06-03","launch_site_code":"TYMSC","launch_vehicle":null,"mission":null,"orbit_class":"UNKNOWN","rcs_meters":79.6214,"size_class":null,"mass_kg":null,"dimensions":null,"purposes":["comms"],"wikipedia_slug":null,"has_3d_model":false,"image_url":null,"decayed_at":null,"tle_current":{"epoch":"2026-09-20T01:19:55.714944Z","epoch_age_seconds":52713,"freshness":"FRESH","line1":"1 39172U 13026A   26263.05550596 -.00000265  00000+0  00000+0 0  9990","line2":"2 39172   0.0429 308.6624 0002447 232.7646 157.0281  1.00271582 48670","mean_motion":1.00271582,"eccentricity":0.0002447,"inclination_deg":0.0429,"raan_deg":308.6624,"arg_perigee_deg":232.7646,"mean_anomaly_deg":157.0281,"bstar":0,"rev_number":4867,"period_min":1436.0998114102,"perigee_km":35776.334145719,"apogee_km":35796.969593392,"semimajor_km":42164.788869556,"source":"CELESTRAK","updated_at":"2026-09-20T09:00:35.642527Z"}}}